Time,TemperatureF,DewpointF,PressureIn,WindDirection,WindDirectionDegrees,WindSpeedMPH,WindSpeedGustMPH,Humidity,HourlyPrecipIn,Conditions,Clouds,dailyrainin,SoftwareType,DateUTC
2013-07-06 00:01:00,60.7,53.1,29.67,SSW,196,7.0,16.0,76,0.00,,,0.00,Wunderground v.1.15,2013-07-06 07:01:00,
2013-07-06 00:06:00,60.7,53.1,29.67,South,184,13.0,16.0,76,0.00,,,0.00,Wunderground v.1.15,2013-07-06 07:06:00,
2013-07-06 00:11:00,60.8,53.2,29.67,SSW,196,10.0,13.0,76,0.00,,,0.00,Wunderground v.1.15,2013-07-06 07:11:00,
2013-07-06 00:16:00,60.7,53.1,29.67,SSW,206,7.0,13.0,76,0.00,,,0.00,Wunderground v.1.15,2013-07-06 07:16:00,
2013-07-06 00:21:00,60.5,52.9,29.67,SW,220,8.0,14.0,76,0.00,,,0.00,Wunderground v.1.15,2013-07-06 07:21:00,
2013-07-06 00:26:00,60.3,52.7,29.67,SW,218,11.0,16.0,76,0.00,,,0.00,Wunderground v.1.15,2013-07-06 07:26:00,
2013-07-06 00:31:00,60.4,52.8,29.67,SW,219,7.0,17.0,76,0.00,,,0.00,Wunderground v.1.15,2013-07-06 07:31:00,
2013-07-06 00:36:00,60.5,52.9,29.67,South,171,8.0,17.0,76,0.00,,,0.00,Wunderground v.1.15,2013-07-06 07:36:00,
2013-07-06 00:41:00,60.4,52.8,29.67,SSE,165,4.0,13.0,76,0.00,,,0.00,Wunderground v.1.15,2013-07-06 07:41:00,
2013-07-06 00:46:00,60.0,52.4,29.67,South,175,8.0,21.0,76,0.00,,,0.00,Wunderground v.1.15,2013-07-06 07:46:00,
2013-07-06 00:51:00,59.8,52.6,29.67,SSW,205,6.0,16.0,77,0.00,,,0.00,Wunderground v.1.15,2013-07-06 07:51:00,
2013-07-06 00:56:00,59.6,52.4,29.67,SSW,192,13.0,17.0,77,0.00,,,0.00,Wunderground v.1.15,2013-07-06 07:56:00,
2013-07-06 01:01:00,59.4,52.5,29.67,SSW,192,7.0,11.0,78,0.00,,,0.00,Wunderground v.1.15,2013-07-06 08:01:00,
2013-07-06 01:06:00,59.3,52.4,29.67,SW,231,9.0,18.0,78,0.00,,,0.00,Wunderground v.1.15,2013-07-06 08:06:00,
2013-07-06 01:11:00,59.3,52.8,29.67,South,188,8.0,12.0,79,0.00,,,0.00,Wunderground v.1.15,2013-07-06 08:11:00,
2013-07-06 01:15:00,59.4,52.9,29.67,SSW,200,5.0,14.0,79,0.00,,,0.00,Wunderground v.1.15,2013-07-06 08:15:00,
2013-07-06 01:20:00,59.5,52.6,29.67,SSW,213,7.0,14.0,78,0.00,,,0.00,Wunderground v.1.15,2013-07-06 08:20:00,
2013-07-06 01:25:00,59.5,52.6,29.68,SSW,202,5.0,14.0,78,0.00,,,0.00,Wunderground v.1.15,2013-07-06 08:25:00,
2013-07-06 01:30:00,59.6,52.7,29.68,SSW,203,5.0,13.0,78,0.00,,,0.00,Wunderground v.1.15,2013-07-06 08:30:00,
2013-07-06 01:35:00,59.6,52.7,29.68,SSW,213,5.0,13.0,78,0.00,,,0.00,Wunderground v.1.15,2013-07-06 08:35:00,
2013-07-06 01:40:00,59.6,52.7,29.68,South,169,4.0,10.0,78,0.00,,,0.00,Wunderground v.1.15,2013-07-06 08:40:00,
2013-07-06 01:45:00,59.6,52.7,29.68,SSW,196,7.0,14.0,78,0.00,,,0.00,Wunderground v.1.15,2013-07-06 08:45:00,
2013-07-06 01:50:00,59.6,52.7,29.68,SSW,206,8.0,9.0,78,0.00,,,0.00,Wunderground v.1.15,2013-07-06 08:50:00,
2013-07-06 01:55:00,59.7,52.8,29.68,SSW,202,7.0,10.0,78,0.00,,,0.00,Wunderground v.1.15,2013-07-06 08:55:00,
2013-07-06 02:00:00,59.8,52.9,29.68,SSW,198,6.0,10.0,78,0.00,,,0.00,Wunderground v.1.15,2013-07-06 09:00:00,
2013-07-06 02:05:00,59.9,53.0,29.68,SSW,205,7.0,12.0,78,0.00,,,0.00,Wunderground v.1.15,2013-07-06 09:05:00,
2013-07-06 02:10:00,59.9,53.0,29.68,SSW,200,9.0,9.0,78,0.00,,,0.00,Wunderground v.1.15,2013-07-06 09:10:00,
2013-07-06 02:15:00,59.9,53.0,29.68,SSW,204,6.0,13.0,78,0.00,,,0.00,Wunderground v.1.15,2013-07-06 09:15:00,
2013-07-06 02:20:00,59.9,53.0,29.68,South,182,6.0,7.0,78,0.00,,,0.00,Wunderground v.1.15,2013-07-06 09:20:00,
2013-07-06 02:25:00,60.1,53.2,29.68,SSW,208,6.0,11.0,78,0.00,,,0.00,Wunderground v.1.15,2013-07-06 09:25:00,
2013-07-06 02:30:00,60.2,53.0,29.68,SW,215,8.0,11.0,77,0.00,,,0.00,Wunderground v.1.15,2013-07-06 09:30:00,
2013-07-06 02:35:00,60.2,53.3,29.69,SSW,207,7.0,13.0,78,0.00,,,0.00,Wunderground v.1.15,2013-07-06 09:35:00,
2013-07-06 02:40:00,60.2,53.0,29.69,SSW,208,7.0,7.0,77,0.00,,,0.00,Wunderground v.1.15,2013-07-06 09:40:00,
2013-07-06 02:45:00,60.2,53.0,29.69,SSW,213,2.0,10.0,77,0.00,,,0.00,Wunderground v.1.15,2013-07-06 09:45:00,
2013-07-06 02:50:00,60.2,53.0,29.69,SSW,205,4.0,5.0,77,0.00,,,0.00,Wunderground v.1.15,2013-07-06 09:50:00,
2013-07-06 02:55:00,60.2,53.0,29.69,South,187,4.0,7.0,77,0.00,,,0.00,Wunderground v.1.15,2013-07-06 09:55:00,
2013-07-06 03:00:00,60.1,52.9,29.69,SSW,204,4.0,9.0,77,0.00,,,0.00,Wunderground v.1.15,2013-07-06 10:00:00,
2013-07-06 03:05:00,60.0,52.8,29.69,SW,227,3.0,9.0,77,0.00,,,0.00,Wunderground v.1.15,2013-07-06 10:05:00,
2013-07-06 03:10:00,59.9,53.0,29.69,SSW,200,5.0,7.0,78,0.00,,,0.00,Wunderground v.1.15,2013-07-06 10:10:00,
2013-07-06 03:15:00,59.7,52.8,29.69,SW,216,6.0,10.0,78,0.00,,,0.00,Wunderground v.1.15,2013-07-06 10:15:00,
2013-07-06 03:20:00,59.6,52.7,29.69,SSW,205,7.0,12.0,78,0.00,,,0.00,Wunderground v.1.15,2013-07-06 10:20:00,
2013-07-06 03:25:00,59.6,52.7,29.69,SSW,202,7.0,12.0,78,0.00,,,0.00,Wunderground v.1.15,2013-07-06 10:25:00,
2013-07-06 03:30:00,59.6,52.7,29.69,SW,225,7.0,9.0,78,0.00,,,0.00,Wunderground v.1.15,2013-07-06 10:30:00,
2013-07-06 03:35:00,59.6,52.7,29.70,SSW,205,6.0,12.0,78,0.00,,,0.00,Wunderground v.1.15,2013-07-06 10:35:00,
2013-07-06 03:40:00,59.6,53.1,29.70,SSW,196,4.0,6.0,79,0.00,,,0.00,Wunderground v.1.15,2013-07-06 10:40:00,
2013-07-06 03:45:00,59.6,52.7,29.70,South,187,4.0,12.0,78,0.00,,,0.00,Wunderground v.1.15,2013-07-06 10:45:00,
2013-07-06 03:50:00,59.6,52.7,29.69,SW,214,5.0,10.0,78,0.00,,,0.00,Wunderground v.1.15,2013-07-06 10:50:00,
2013-07-06 03:55:00,59.6,52.7,29.69,SSW,198,6.0,10.0,78,0.00,,,0.00,Wunderground v.1.15,2013-07-06 10:55:00,
2013-07-06 04:00:00,59.5,53.0,29.69,SSW,207,4.0,8.0,79,0.00,,,0.00,Wunderground v.1.15,2013-07-06 11:00:00,
2013-07-06 04:05:00,59.4,52.9,29.70,SW,216,7.0,12.0,79,0.00,,,0.00,Wunderground v.1.15,2013-07-06 11:05:00,
2013-07-06 04:10:00,59.4,52.9,29.70,SSW,210,8.0,8.0,79,0.00,,,0.00,Wunderground v.1.15,2013-07-06 11:10:00,
2013-07-06 04:15:00,59.1,52.6,29.70,South,181,8.0,11.0,79,0.00,,,0.00,Wunderground v.1.15,2013-07-06 11:15:00,
2013-07-06 04:20:00,58.6,52.4,29.70,South,182,9.0,9.0,80,0.00,,,0.00,Wunderground v.1.15,2013-07-06 11:20:00,
2013-07-06 04:25:00,58.3,52.5,29.70,SSW,194,6.0,13.0,81,0.00,,,0.00,Wunderground v.1.15,2013-07-06 11:25:00,
2013-07-06 04:30:00,58.2,52.4,29.70,South,188,4.0,7.0,81,0.00,,,0.00,Wunderground v.1.15,2013-07-06 11:30:00,
2013-07-06 04:35:00,58.2,52.7,29.70,SSW,209,5.0,10.0,82,0.00,,,0.00,Wunderground v.1.15,2013-07-06 11:35:00,
2013-07-06 04:40:00,58.2,52.7,29.70,SSW,213,9.0,9.0,82,0.00,,,0.00,Wunderground v.1.15,2013-07-06 11:40:00,
2013-07-06 04:45:00,58.3,52.5,29.70,SSW,199,4.0,11.0,81,0.00,,,0.00,Wunderground v.1.15,2013-07-06 11:45:00,
2013-07-06 04:50:00,58.3,52.8,29.70,SSW,200,3.0,6.0,82,0.00,,,0.00,Wunderground v.1.15,2013-07-06 11:50:00,
2013-07-06 04:55:00,58.2,52.7,29.71,SSW,193,3.0,11.0,82,0.00,,,0.00,Wunderground v.1.15,2013-07-06 11:55:00,
2013-07-06 05:00:00,58.1,52.6,29.70,SSW,200,8.0,15.0,82,0.00,,,0.00,Wunderground v.1.15,2013-07-06 12:00:00,
2013-07-06 05:05:00,58.1,52.6,29.70,SSW,196,5.0,15.0,82,0.00,,,0.00,Wunderground v.1.15,2013-07-06 12:05:00,
2013-07-06 05:10:00,58.1,52.6,29.70,SSW,205,2.0,7.0,82,0.00,,,0.00,Wunderground v.1.15,2013-07-06 12:10:00,
2013-07-06 05:15:00,58.2,52.7,29.71,SSW,193,4.0,11.0,82,0.00,,,0.00,Wunderground v.1.15,2013-07-06 12:15:00,
2013-07-06 05:20:00,58.2,52.7,29.71,SSW,202,3.0,5.0,82,0.00,,,0.00,Wunderground v.1.15,2013-07-06 12:20:00,
2013-07-06 05:25:00,58.3,52.8,29.71,South,183,5.0,10.0,82,0.00,,,0.00,Wunderground v.1.15,2013-07-06 12:25:00,
2013-07-06 05:30:00,58.4,52.9,29.71,SSW,207,4.0,5.0,82,0.00,,,0.00,Wunderground v.1.15,2013-07-06 12:30:00,
2013-07-06 05:35:00,58.5,53.0,29.71,SSW,194,2.0,7.0,82,0.00,,,0.00,Wunderground v.1.15,2013-07-06 12:35:00,
2013-07-06 05:40:00,58.6,53.1,29.71,South,174,1.0,3.0,82,0.00,,,0.00,Wunderground v.1.15,2013-07-06 12:40:00,
2013-07-06 05:45:00,58.6,53.1,29.71,SSW,207,5.0,8.0,82,0.00,,,0.00,Wunderground v.1.15,2013-07-06 12:45:00,
2013-07-06 05:50:00,58.7,53.2,29.71,South,178,4.0,4.0,82,0.00,,,0.00,Wunderground v.1.15,2013-07-06 12:50:00,
2013-07-06 05:55:00,58.8,53.0,29.72,South,179,0.0,8.0,81,0.00,,,0.00,Wunderground v.1.15,2013-07-06 12:55:00,
2013-07-06 06:00:00,58.7,52.9,29.72,South,169,4.0,4.0,81,0.00,,,0.00,Wunderground v.1.15,2013-07-06 13:00:00,
2013-07-06 06:05:00,58.6,52.8,29.72,SSW,194,3.0,6.0,81,0.00,,,0.00,Wunderground v.1.15,2013-07-06 13:05:00,
2013-07-06 06:10:00,58.7,53.2,29.72,South,190,5.0,5.0,82,0.00,,,0.00,Wunderground v.1.15,2013-07-06 13:10:00,
2013-07-06 06:15:00,58.7,53.2,29.72,South,190,1.0,5.0,82,0.00,,,0.00,Wunderground v.1.15,2013-07-06 13:15:00,
2013-07-06 06:20:00,58.8,53.3,29.72,South,190,1.0,2.0,82,0.00,,,0.00,Wunderground v.1.15,2013-07-06 13:20:00,
2013-07-06 06:25:00,58.9,53.4,29.72,South,190,4.0,5.0,82,0.00,,,0.00,Wunderground v.1.15,2013-07-06 13:25:00,
2013-07-06 06:30:00,59.0,53.2,29.72,South,190,3.0,3.0,81,0.00,,,0.00,Wunderground v.1.15,2013-07-06 13:30:00,
2013-07-06 06:35:00,59.1,53.3,29.73,South,190,3.0,4.0,81,0.00,,,0.00,Wunderground v.1.15,2013-07-06 13:35:00,
2013-07-06 06:40:00,59.1,53.3,29.73,South,190,2.0,2.0,81,0.00,,,0.00,Wunderground v.1.15,2013-07-06 13:40:00,
2013-07-06 06:45:00,59.3,53.5,29.73,South,190,4.0,5.0,81,0.00,,,0.00,Wunderground v.1.15,2013-07-06 13:45:00,
2013-07-06 06:50:00,59.4,53.6,29.73,South,190,1.0,2.0,81,0.00,,,0.00,Wunderground v.1.15,2013-07-06 13:50:00,
2013-07-06 06:55:00,59.5,53.3,29.73,South,188,2.0,6.0,80,0.00,,,0.00,Wunderground v.1.15,2013-07-06 13:55:00,
2013-07-06 07:00:00,59.7,53.5,29.74,South,184,4.0,4.0,80,0.00,,,0.00,Wunderground v.1.15,2013-07-06 14:00:00,
2013-07-06 07:05:00,59.8,53.6,29.74,South,186,6.0,6.0,80,0.00,,,0.00,Wunderground v.1.15,2013-07-06 14:05:00,
2013-07-06 07:10:00,60.0,53.8,29.74,South,186,2.0,4.0,80,0.00,,,0.00,Wunderground v.1.15,2013-07-06 14:10:00,
2013-07-06 07:15:00,60.3,54.1,29.74,South,181,4.0,6.0,80,0.00,,,0.00,Wunderground v.1.15,2013-07-06 14:15:00,
2013-07-06 07:20:00,60.6,54.0,29.74,South,182,1.0,3.0,79,0.00,,,0.00,Wunderground v.1.15,2013-07-06 14:20:00,
2013-07-06 07:25:00,60.9,54.0,29.74,SSW,200,4.0,9.0,78,0.00,,,0.00,Wunderground v.1.15,2013-07-06 14:25:00,
2013-07-06 07:30:00,61.2,54.3,29.74,South,178,2.0,4.0,78,0.00,,,0.00,Wunderground v.1.15,2013-07-06 14:30:00,
2013-07-06 07:35:00,61.6,54.3,29.74,South,189,5.0,6.0,77,0.00,,,0.00,Wunderground v.1.15,2013-07-06 14:35:00,
2013-07-06 07:40:00,62.0,54.3,29.74,SSW,192,5.0,5.0,76,0.00,,,0.00,Wunderground v.1.15,2013-07-06 14:40:00,
2013-07-06 07:45:00,62.3,54.6,29.74,SSW,193,4.0,6.0,76,0.00,,,0.00,Wunderground v.1.15,2013-07-06 14:45:00,
2013-07-06 07:50:00,62.7,54.7,29.74,South,190,4.0,4.0,75,0.00,,,0.00,Wunderground v.1.15,2013-07-06 14:50:00,
2013-07-06 07:55:00,63.2,54.8,29.74,SSW,196,5.0,9.0,74,0.00,,,0.00,Wunderground v.1.15,2013-07-06 14:55:00,
2013-07-06 08:00:00,63.7,54.9,29.74,South,182,4.0,6.0,73,0.00,,,0.00,Wunderground v.1.15,2013-07-06 15:00:00,
2013-07-06 08:05:00,63.9,55.1,29.74,South,189,7.0,8.0,73,0.00,,,0.00,Wunderground v.1.15,2013-07-06 15:05:00,
2013-07-06 08:10:00,64.2,55.0,29.74,South,179,6.0,7.0,72,0.00,,,0.00,Wunderground v.1.15,2013-07-06 15:10:00,
2013-07-06 08:15:00,64.2,54.6,29.75,SSW,206,3.0,12.0,71,0.00,,,0.00,Wunderground v.1.15,2013-07-06 15:15:00,
2013-07-06 08:20:00,64.3,55.1,29.75,SSW,200,4.0,7.0,72,0.00,,,0.00,Wunderground v.1.15,2013-07-06 15:20:00,
2013-07-06 08:25:00,64.4,54.8,29.75,SSW,205,4.0,13.0,71,0.00,,,0.00,Wunderground v.1.15,2013-07-06 15:25:00,
2013-07-06 08:30:00,64.6,55.4,29.75,South,178,4.0,5.0,72,0.00,,,0.00,Wunderground v.1.15,2013-07-06 15:30:00,
2013-07-06 08:35:00,64.9,55.3,29.75,South,182,3.0,10.0,71,0.00,,,0.00,Wunderground v.1.15,2013-07-06 15:35:00,
2013-07-06 08:40:00,65.3,55.3,29.75,SSW,193,3.0,5.0,70,0.00,,,0.00,Wunderground v.1.15,2013-07-06 15:40:00,
2013-07-06 08:45:00,65.7,55.2,29.75,South,186,5.0,11.0,69,0.00,,,0.00,Wunderground v.1.15,2013-07-06 15:45:00,
2013-07-06 08:50:00,66.1,55.6,29.75,SSE,164,5.0,7.0,69,0.00,,,0.00,Wunderground v.1.15,2013-07-06 15:50:00,
2013-07-06 08:55:00,66.3,55.4,29.75,SSW,213,7.0,9.0,68,0.00,,,0.00,Wunderground v.1.15,2013-07-06 15:55:00,
2013-07-06 09:00:00,66.6,55.7,29.75,SSE,165,5.0,9.0,68,0.00,,,0.00,Wunderground v.1.15,2013-07-06 16:00:00,
2013-07-06 09:06:00,66.7,55.8,29.75,South,188,3.0,10.0,68,0.00,,,0.00,Wunderground v.1.15,2013-07-06 16:06:00,
2013-07-06 09:11:00,66.9,55.6,29.75,SW,214,5.0,9.0,67,0.00,,,0.00,Wunderground v.1.15,2013-07-06 16:11:00,
2013-07-06 09:17:00,67.1,55.8,29.75,SSW,197,5.0,11.0,67,0.00,,,0.00,Wunderground v.1.15,2013-07-06 16:17:00,
2013-07-06 09:23:00,67.3,55.5,29.76,SSW,208,6.0,10.0,66,0.00,,,0.00,Wunderground v.1.15,2013-07-06 16:23:00,
2013-07-06 09:28:00,67.5,55.7,29.76,SW,220,9.0,10.0,66,0.00,,,0.00,Wunderground v.1.15,2013-07-06 16:28:00,
2013-07-06 09:33:00,67.8,55.6,29.76,SSW,213,2.0,11.0,65,0.00,,,0.00,Wunderground v.1.15,2013-07-06 16:33:00,
2013-07-06 09:38:00,68.1,55.9,29.76,SSW,202,7.0,14.0,65,0.00,,,0.00,Wunderground v.1.15,2013-07-06 16:38:00,
2013-07-06 09:43:00,68.5,55.8,29.76,South,186,5.0,10.0,64,0.00,,,0.00,Wunderground v.1.15,2013-07-06 16:43:00,
2013-07-06 09:49:00,68.8,56.1,29.75,South,174,3.0,10.0,64,0.00,,,0.00,Wunderground v.1.15,2013-07-06 16:49:00,
2013-07-06 09:54:00,69.3,56.2,29.75,SSW,205,2.0,9.0,63,0.00,,,0.00,Wunderground v.1.15,2013-07-06 16:54:00,
2013-07-06 09:59:00,69.6,56.0,29.76,South,184,3.0,10.0,62,0.00,,,0.00,Wunderground v.1.15,2013-07-06 16:59:00,
2013-07-06 10:04:00,69.8,55.7,29.75,SW,216,9.0,10.0,61,0.00,,,0.00,Wunderground v.1.15,2013-07-06 17:04:00,
2013-07-06 10:10:00,69.8,56.2,29.75,South,184,3.0,6.0,62,0.00,,,0.00,Wunderground v.1.15,2013-07-06 17:10:00,
2013-07-06 10:15:00,69.8,56.2,29.76,SW,227,6.0,8.0,62,0.00,,,0.00,Wunderground v.1.15,2013-07-06 17:15:00,
2013-07-06 10:20:00,70.2,56.1,29.75,SSE,162,6.0,7.0,61,0.00,,,0.00,Wunderground v.1.15,2013-07-06 17:20:00,
2013-07-06 10:26:00,70.5,56.4,29.75,SSE,165,8.0,11.0,61,0.00,,,0.00,Wunderground v.1.15,2013-07-06 17:26:00,
2013-07-06 10:31:00,70.7,56.6,29.75,South,180,11.0,11.0,61,0.00,,,0.00,Wunderground v.1.15,2013-07-06 17:31:00,
2013-07-06 10:36:00,71.3,56.7,29.75,South,187,4.0,11.0,60,0.00,,,0.00,Wunderground v.1.15,2013-07-06 17:36:00,
2013-07-06 10:42:00,71.8,56.7,29.76,SSW,196,7.0,8.0,59,0.00,,,0.00,Wunderground v.1.15,2013-07-06 17:42:00,
2013-07-06 10:47:00,71.9,56.8,29.76,SW,220,11.0,11.0,59,0.00,,,0.00,Wunderground v.1.15,2013-07-06 17:47:00,
2013-07-06 10:53:00,71.9,56.3,29.76,SSW,200,6.0,11.0,58,0.00,,,0.00,Wunderground v.1.15,2013-07-06 17:53:00,
2013-07-06 10:58:00,72.0,56.4,29.76,SSW,205,9.0,11.0,58,0.00,,,0.00,Wunderground v.1.15,2013-07-06 17:58:00,
2013-07-06 11:03:00,72.2,56.6,29.76,SW,221,13.0,13.0,58,0.00,,,0.00,Wunderground v.1.15,2013-07-06 18:03:00,
2013-07-06 11:08:00,72.2,56.1,29.76,SSW,200,5.0,13.0,57,0.00,,,0.00,Wunderground v.1.15,2013-07-06 18:08:00,
2013-07-06 11:13:00,72.2,56.6,29.76,SSW,192,10.0,14.0,58,0.00,,,0.00,Wunderground v.1.15,2013-07-06 18:13:00,
2013-07-06 11:18:00,72.2,56.6,29.76,SSW,207,9.0,14.0,58,0.00,,,0.00,Wunderground v.1.15,2013-07-06 18:18:00,
2013-07-06 11:23:00,72.4,56.3,29.76,South,172,10.0,11.0,57,0.00,,,0.00,Wunderground v.1.15,2013-07-06 18:23:00,
2013-07-06 11:28:00,72.7,56.6,29.75,SSW,206,6.0,14.0,57,0.00,,,0.00,Wunderground v.1.15,2013-07-06 18:28:00,
2013-07-06 11:33:00,73.1,57.0,29.76,SSW,199,8.0,11.0,57,0.00,,,0.00,Wunderground v.1.15,2013-07-06 18:33:00,
2013-07-06 11:38:00,73.5,56.8,29.75,South,181,8.0,13.0,56,0.00,,,0.00,Wunderground v.1.15,2013-07-06 18:38:00,
2013-07-06 11:44:00,74.1,56.9,29.75,SSE,159,5.0,8.0,55,0.00,,,0.00,Wunderground v.1.15,2013-07-06 18:44:00,
2013-07-06 11:49:00,74.3,56.6,29.75,South,176,6.0,11.0,54,0.00,,,0.00,Wunderground v.1.15,2013-07-06 18:49:00,
2013-07-06 11:54:00,74.6,56.9,29.76,SSE,168,10.0,15.0,54,0.00,,,0.00,Wunderground v.1.15,2013-07-06 18:54:00,
2013-07-06 12:00:00,74.5,56.8,29.76,SSW,207,7.0,7.0,54,0.00,,,0.00,Wunderground v.1.15,2013-07-06 19:00:00,
2013-07-06 12:05:00,74.6,56.9,29.75,South,173,6.0,14.0,54,0.00,,,0.00,Wunderground v.1.15,2013-07-06 19:05:00,
2013-07-06 12:11:00,75.0,57.2,29.76,South,178,4.0,7.0,54,0.00,,,0.00,Wunderground v.1.15,2013-07-06 19:11:00,
2013-07-06 12:17:00,75.2,56.9,29.75,SSW,196,9.0,15.0,53,0.00,,,0.00,Wunderground v.1.15,2013-07-06 19:17:00,
2013-07-06 12:22:00,75.5,56.6,29.75,South,187,7.0,11.0,52,0.00,,,0.00,Wunderground v.1.15,2013-07-06 19:22:00,
2013-07-06 12:27:00,75.4,57.6,29.75,SSW,203,4.0,12.0,54,0.00,,,0.00,Wunderground v.1.15,2013-07-06 19:27:00,
2013-07-06 12:34:00,75.9,57.5,29.75,SSW,196,8.0,9.0,53,0.00,,,0.00,Wunderground v.1.15,2013-07-06 19:34:00,
2013-07-06 12:39:00,76.3,57.4,29.75,SSW,212,10.0,10.0,52,0.00,,,0.00,Wunderground v.1.15,2013-07-06 19:39:00,
2013-07-06 12:45:00,76.7,57.7,29.74,SSE,168,5.0,12.0,52,0.00,,,0.00,Wunderground v.1.15,2013-07-06 19:45:00,
2013-07-06 12:51:00,77.4,57.9,29.74,SSE,158,12.0,12.0,51,0.00,,,0.00,Wunderground v.1.15,2013-07-06 19:51:00,
2013-07-06 12:57:00,77.7,57.6,29.74,South,178,8.0,12.0,50,0.00,,,0.00,Wunderground v.1.15,2013-07-06 19:57:00,
2013-07-06 13:02:00,77.9,57.8,29.74,South,187,11.0,14.0,50,0.00,,,0.00,Wunderground v.1.15,2013-07-06 20:02:00,
2013-07-06 13:08:00,78.0,57.3,29.74,SSW,204,5.0,14.0,49,0.00,,,0.00,Wunderground v.1.15,2013-07-06 20:08:00,
2013-07-06 13:13:00,77.9,57.8,29.74,South,182,6.0,14.0,50,0.00,,,0.00,Wunderground v.1.15,2013-07-06 20:13:00,
2013-07-06 13:19:00,77.8,57.7,29.74,SSW,194,9.0,14.0,50,0.00,,,0.00,Wunderground v.1.15,2013-07-06 20:19:00,
2013-07-06 13:24:00,78.1,57.9,29.74,SSW,210,5.0,14.0,50,0.00,,,0.00,Wunderground v.1.15,2013-07-06 20:24:00,
2013-07-06 13:29:00,78.8,58.0,29.73,SSE,167,4.0,14.0,49,0.00,,,0.00,Wunderground v.1.15,2013-07-06 20:29:00,
2013-07-06 13:34:00,79.3,57.9,29.73,SSW,205,9.0,12.0,48,0.00,,,0.00,Wunderground v.1.15,2013-07-06 20:34:00,
2013-07-06 13:40:00,79.4,58.0,29.73,SSW,193,6.0,12.0,48,0.00,,,0.00,Wunderground v.1.15,2013-07-06 20:40:00,
2013-07-06 13:45:00,79.7,58.3,29.73,SSW,195,10.0,14.0,48,0.00,,,0.00,Wunderground v.1.15,2013-07-06 20:45:00,
2013-07-06 13:52:00,80.2,58.1,29.73,SSW,203,10.0,10.0,47,0.00,,,0.00,Wunderground v.1.15,2013-07-06 20:52:00,
2013-07-06 13:57:00,80.0,58.5,29.73,SSW,198,7.0,11.0,48,0.00,,,0.00,Wunderground v.1.15,2013-07-06 20:57:00,
2013-07-06 14:03:00,80.5,58.4,29.73,SSW,205,6.0,12.0,47,0.00,,,0.00,Wunderground v.1.15,2013-07-06 21:03:00,
2013-07-06 14:08:00,80.6,57.9,29.73,South,178,5.0,14.0,46,0.00,,,0.00,Wunderground v.1.15,2013-07-06 21:08:00,
2013-07-06 14:14:00,80.7,58.6,29.72,SW,228,4.0,9.0,47,0.00,,,0.00,Wunderground v.1.15,2013-07-06 21:14:00,
2013-07-06 14:19:00,80.9,58.2,29.72,SW,216,6.0,11.0,46,0.00,,,0.00,Wunderground v.1.15,2013-07-06 21:19:00,
2013-07-06 14:24:00,80.7,58.0,29.72,SSE,154,12.0,14.0,46,0.00,,,0.00,Wunderground v.1.15,2013-07-06 21:24:00,
2013-07-06 14:29:00,80.9,58.8,29.72,SSE,153,2.0,15.0,47,0.00,,,0.00,Wunderground v.1.15,2013-07-06 21:29:00,
2013-07-06 14:34:00,81.2,57.8,29.72,SSW,207,7.0,15.0,45,0.00,,,0.00,Wunderground v.1.15,2013-07-06 21:34:00,
2013-07-06 14:40:00,81.2,58.5,29.72,WSW,240,8.0,8.0,46,0.00,,,0.00,Wunderground v.1.15,2013-07-06 21:40:00,
2013-07-06 14:45:00,81.3,58.5,29.71,SSW,195,7.0,12.0,46,0.00,,,0.00,Wunderground v.1.15,2013-07-06 21:45:00,
2013-07-06 14:50:00,81.2,58.5,29.71,South,181,6.0,12.0,46,0.00,,,0.00,Wunderground v.1.15,2013-07-06 21:50:00,
2013-07-06 14:56:00,80.8,58.1,29.71,SSW,211,5.0,14.0,46,0.00,,,0.00,Wunderground v.1.15,2013-07-06 21:56:00,
2013-07-06 15:02:00,80.7,58.0,29.71,South,172,4.0,12.0,46,0.00,,,0.00,Wunderground v.1.15,2013-07-06 22:02:00,
2013-07-06 15:08:00,80.9,58.2,29.71,SSE,151,5.0,12.0,46,0.00,,,0.00,Wunderground v.1.15,2013-07-06 22:08:00,
2013-07-06 15:13:00,81.1,58.4,29.70,SSW,194,11.0,16.0,46,0.00,,,0.00,Wunderground v.1.15,2013-07-06 22:13:00,
2013-07-06 15:19:00,81.2,57.8,29.70,SSW,213,17.0,17.0,45,0.00,,,0.00,Wunderground v.1.15,2013-07-06 22:19:00,
2013-07-06 15:24:00,81.2,57.8,29.71,SSW,202,9.0,17.0,45,0.00,,,0.00,Wunderground v.1.15,2013-07-06 22:24:00,
2013-07-06 15:30:00,81.0,57.7,29.71,South,181,6.0,9.0,45,0.00,,,0.00,Wunderground v.1.15,2013-07-06 22:30:00,
2013-07-06 15:36:00,80.9,57.6,29.70,SSW,196,10.0,17.0,45,0.00,,,0.00,Wunderground v.1.15,2013-07-06 22:36:00,
2013-07-06 15:41:00,80.9,57.6,29.70,SSE,168,15.0,15.0,45,0.00,,,0.00,Wunderground v.1.15,2013-07-06 22:41:00,
2013-07-06 15:47:00,81.0,57.7,29.70,South,186,9.0,15.0,45,0.00,,,0.00,Wunderground v.1.15,2013-07-06 22:47:00,
2013-07-06 15:52:00,80.9,57.6,29.70,SW,234,13.0,13.0,45,0.00,,,0.00,Wunderground v.1.15,2013-07-06 22:52:00,
2013-07-06 15:57:00,80.6,57.3,29.70,SSW,199,16.0,17.0,45,0.00,,,0.00,Wunderground v.1.15,2013-07-06 22:57:00,
2013-07-06 16:02:00,80.5,57.8,29.70,SE,140,6.0,13.0,46,0.00,,,0.00,Wunderground v.1.15,2013-07-06 23:02:00,
2013-07-06 16:07:00,80.7,57.4,29.69,SSW,209,5.0,15.0,45,0.00,,,0.00,Wunderground v.1.15,2013-07-06 23:07:00,
2013-07-06 16:13:00,80.9,57.6,29.69,South,186,9.0,13.0,45,0.00,,,0.00,Wunderground v.1.15,2013-07-06 23:13:00,
2013-07-06 16:18:00,81.0,57.7,29.69,SW,235,15.0,15.0,45,0.00,,,0.00,Wunderground v.1.15,2013-07-06 23:18:00,
2013-07-06 16:23:00,81.4,58.0,29.69,SSE,166,3.0,9.0,45,0.00,,,0.00,Wunderground v.1.15,2013-07-06 23:23:00,
2013-07-06 16:30:00,81.8,57.8,29.69,SW,231,13.0,13.0,44,0.00,,,0.00,Wunderground v.1.15,2013-07-06 23:30:00,
2013-07-06 16:35:00,81.6,57.6,29.68,South,186,7.0,14.0,44,0.00,,,0.00,Wunderground v.1.15,2013-07-06 23:35:00,
2013-07-06 16:40:00,81.7,57.7,29.68,SSW,211,2.0,8.0,44,0.00,,,0.00,Wunderground v.1.15,2013-07-06 23:40:00,
2013-07-06 16:45:00,81.8,57.1,29.68,West,266,7.0,12.0,43,0.00,,,0.00,Wunderground v.1.15,2013-07-06 23:45:00,
2013-07-06 16:50:00,81.5,57.5,29.68,SSW,196,7.0,11.0,44,0.00,,,0.00,Wunderground v.1.15,2013-07-06 23:50:00,
2013-07-06 16:55:00,81.2,57.2,29.68,South,191,10.0,16.0,44,0.00,,,0.00,Wunderground v.1.15,2013-07-06 23:55:00,
2013-07-06 17:01:00,81.1,57.1,29.68,SSW,209,7.0,14.0,44,0.00,,,0.00,Wunderground v.1.15,2013-07-07 00:01:00,
2013-07-06 17:06:00,81.1,57.7,29.67,SSW,192,7.0,14.0,45,0.00,,,0.00,Wunderground v.1.15,2013-07-07 00:06:00,
2013-07-06 17:11:00,81.3,57.3,29.68,SSW,198,4.0,12.0,44,0.00,,,0.00,Wunderground v.1.15,2013-07-07 00:11:00,
2013-07-06 17:17:00,81.8,57.8,29.67,SE,142,12.0,12.0,44,0.00,,,0.00,Wunderground v.1.15,2013-07-07 00:17:00,
2013-07-06 17:22:00,81.7,57.7,29.67,SSW,212,4.0,13.0,44,0.00,,,0.00,Wunderground v.1.15,2013-07-07 00:22:00,
2013-07-06 17:27:00,81.8,57.8,29.67,South,176,10.0,13.0,44,0.00,,,0.00,Wunderground v.1.15,2013-07-07 00:27:00,
2013-07-06 17:32:00,81.4,57.4,29.67,SW,217,7.0,11.0,44,0.00,,,0.00,Wunderground v.1.15,2013-07-07 00:32:00,
2013-07-06 17:37:00,81.2,57.2,29.67,SSE,163,8.0,13.0,44,0.00,,,0.00,Wunderground v.1.15,2013-07-07 00:37:00,
2013-07-06 17:43:00,80.9,57.6,29.67,South,182,5.0,14.0,45,0.00,,,0.00,Wunderground v.1.15,2013-07-07 00:43:00,
2013-07-06 17:48:00,81.0,57.7,29.67,South,181,10.0,14.0,45,0.00,,,0.00,Wunderground v.1.15,2013-07-07 00:48:00,
2013-07-06 17:53:00,80.9,57.6,29.67,South,186,7.0,13.0,45,0.00,,,0.00,Wunderground v.1.15,2013-07-07 00:53:00,
2013-07-06 17:58:00,80.6,57.3,29.67,SW,232,12.0,17.0,45,0.00,,,0.00,Wunderground v.1.15,2013-07-07 00:58:00,
2013-07-06 18:03:00,80.6,57.3,29.66,SW,215,12.0,15.0,45,0.00,,,0.00,Wunderground v.1.15,2013-07-07 01:03:00,
2013-07-06 18:08:00,80.6,57.3,29.66,SW,217,7.0,15.0,45,0.00,,,0.00,Wunderground v.1.15,2013-07-07 01:08:00,
2013-07-06 18:13:00,80.6,57.3,29.66,South,173,9.0,10.0,45,0.00,,,0.00,Wunderground v.1.15,2013-07-07 01:13:00,
2013-07-06 18:19:00,80.8,57.5,29.66,SSW,207,8.0,11.0,45,0.00,,,0.00,Wunderground v.1.15,2013-07-07 01:19:00,
2013-07-06 18:24:00,80.8,57.5,29.66,South,175,7.0,12.0,45,0.00,,,0.00,Wunderground v.1.15,2013-07-07 01:24:00,
2013-07-06 18:29:00,80.7,57.4,29.66,South,190,5.0,12.0,45,0.00,,,0.00,Wunderground v.1.15,2013-07-07 01:29:00,
2013-07-06 18:35:00,80.6,57.3,29.66,SW,228,7.0,11.0,45,0.00,,,0.00,Wunderground v.1.15,2013-07-07 01:35:00,
2013-07-06 18:41:00,80.3,57.0,29.66,South,187,8.0,8.0,45,0.00,,,0.00,Wunderground v.1.15,2013-07-07 01:41:00,
2013-07-06 18:46:00,80.2,56.9,29.66,SW,224,10.0,13.0,45,0.00,,,0.00,Wunderground v.1.15,2013-07-07 01:46:00,
2013-07-06 18:52:00,79.7,57.1,29.66,SSW,201,5.0,9.0,46,0.00,,,0.00,Wunderground v.1.15,2013-07-07 01:52:00,
2013-07-06 18:58:00,79.4,56.8,29.66,SSW,196,6.0,12.0,46,0.00,,,0.00,Wunderground v.1.15,2013-07-07 01:58:00,
2013-07-06 19:04:00,79.0,56.5,29.66,South,188,5.0,13.0,46,0.00,,,0.00,Wunderground v.1.15,2013-07-07 02:04:00,
2013-07-06 19:09:00,78.5,56.6,29.66,SSW,205,5.0,14.0,47,0.00,,,0.00,Wunderground v.1.15,2013-07-07 02:09:00,
2013-07-06 19:14:00,78.1,56.2,29.66,SSW,202,3.0,11.0,47,0.00,,,0.00,Wunderground v.1.15,2013-07-07 02:14:00,
2013-07-06 19:19:00,77.7,55.9,29.66,SSW,194,4.0,11.0,47,0.00,,,0.00,Wunderground v.1.15,2013-07-07 02:19:00,
2013-07-06 19:24:00,77.5,55.7,29.66,South,184,7.0,13.0,47,0.00,,,0.00,Wunderground v.1.15,2013-07-07 02:24:00,
2013-07-06 19:30:00,76.8,55.6,29.66,SSE,158,10.0,10.0,48,0.00,,,0.00,Wunderground v.1.15,2013-07-07 02:30:00,
2013-07-06 19:35:00,76.1,55.5,29.66,SSW,206,14.0,16.0,49,0.00,,,0.00,Wunderground v.1.15,2013-07-07 02:35:00,
2013-07-06 19:40:00,75.4,54.9,29.66,SW,215,7.0,9.0,49,0.00,,,0.00,Wunderground v.1.15,2013-07-07 02:40:00,
2013-07-06 19:45:00,75.1,55.2,29.67,South,179,6.0,10.0,50,0.00,,,0.00,Wunderground v.1.15,2013-07-07 02:45:00,
2013-07-06 19:50:00,74.7,55.4,29.67,South,182,4.0,7.0,51,0.00,,,0.00,Wunderground v.1.15,2013-07-07 02:50:00,
2013-07-06 19:56:00,74.3,55.0,29.67,South,190,9.0,13.0,51,0.00,,,0.00,Wunderground v.1.15,2013-07-07 02:56:00,
2013-07-06 20:01:00,73.8,54.5,29.67,SSW,196,3.0,14.0,51,0.00,,,0.00,Wunderground v.1.15,2013-07-07 03:01:00,
2013-07-06 20:06:00,73.4,54.7,29.66,SSE,163,2.0,14.0,52,0.00,,,0.00,Wunderground v.1.15,2013-07-07 03:06:00,
2013-07-06 20:12:00,73.0,54.9,29.66,South,186,2.0,8.0,53,0.00,,,0.00,Wunderground v.1.15,2013-07-07 03:12:00,
2013-07-06 20:18:00,72.8,55.2,29.67,SSW,202,7.0,10.0,54,0.00,,,0.00,Wunderground v.1.15,2013-07-07 03:18:00,
2013-07-06 20:23:00,72.7,55.1,29.67,South,185,5.0,7.0,54,0.00,,,0.00,Wunderground v.1.15,2013-07-07 03:23:00,
2013-07-06 20:28:00,72.5,54.9,29.67,SW,226,3.0,9.0,54,0.00,,,0.00,Wunderground v.1.15,2013-07-07 03:28:00,
2013-07-06 20:33:00,72.3,55.2,29.67,SSW,198,5.0,10.0,55,0.00,,,0.00,Wunderground v.1.15,2013-07-07 03:33:00,
2013-07-06 20:38:00,72.1,55.0,29.67,South,188,10.0,12.0,55,0.00,,,0.00,Wunderground v.1.15,2013-07-07 03:38:00,
2013-07-06 20:43:00,71.9,54.9,29.67,South,183,4.0,8.0,55,0.00,,,0.00,Wunderground v.1.15,2013-07-07 03:43:00,
2013-07-06 20:49:00,71.6,54.6,29.67,South,169,6.0,8.0,55,0.00,,,0.00,Wunderground v.1.15,2013-07-07 03:49:00,
2013-07-06 20:54:00,71.4,54.4,29.67,South,177,3.0,7.0,55,0.00,,,0.00,Wunderground v.1.15,2013-07-07 03:54:00,
2013-07-06 20:59:00,71.1,54.6,29.67,SSW,192,6.0,7.0,56,0.00,,,0.00,Wunderground v.1.15,2013-07-07 03:59:00,
2013-07-06 21:01:00,71.0,54.5,29.67,South,184,3.0,7.0,56,0.00,,,0.00,Wunderground v.1.15,2013-07-07 04:01:00,
2013-07-06 21:06:00,70.4,54.0,29.67,South,184,4.0,9.0,56,0.00,,,0.00,Wunderground v.1.15,2013-07-07 04:06:00,
2013-07-06 21:11:00,70.1,54.6,29.67,South,187,7.0,11.0,58,0.00,,,0.00,Wunderground v.1.15,2013-07-07 04:11:00,
2013-07-06 21:16:00,70.0,54.5,29.67,South,187,6.0,11.0,58,0.00,,,0.00,Wunderground v.1.15,2013-07-07 04:16:00,
2013-07-06 21:21:00,70.0,54.5,29.67,SSW,204,5.0,7.0,58,0.00,,,0.00,Wunderground v.1.15,2013-07-07 04:21:00,
2013-07-06 21:26:00,70.0,55.0,29.68,SSW,197,5.0,11.0,59,0.00,,,0.00,Wunderground v.1.15,2013-07-07 04:26:00,
2013-07-06 21:31:00,69.9,54.9,29.68,South,177,3.0,8.0,59,0.00,,,0.00,Wunderground v.1.15,2013-07-07 04:31:00,
2013-07-06 21:36:00,69.8,54.8,29.68,SSW,193,6.0,11.0,59,0.00,,,0.00,Wunderground v.1.15,2013-07-07 04:36:00,
2013-07-06 21:41:00,69.6,54.6,29.68,SSW,201,7.0,9.0,59,0.00,,,0.00,Wunderground v.1.15,2013-07-07 04:41:00,
2013-07-06 21:46:00,69.4,54.9,29.68,South,185,5.0,9.0,60,0.00,,,0.00,Wunderground v.1.15,2013-07-07 04:46:00,
2013-07-06 21:51:00,69.2,54.7,29.68,SSE,165,4.0,5.0,60,0.00,,,0.00,Wunderground v.1.15,2013-07-07 04:51:00,
2013-07-06 21:56:00,68.8,54.3,29.68,South,181,5.0,10.0,60,0.00,,,0.00,Wunderground v.1.15,2013-07-07 04:56:00,
2013-07-06 22:01:00,68.2,54.2,29.69,SSW,201,6.0,8.0,61,0.00,,,0.00,Wunderground v.1.15,2013-07-07 05:01:00,
2013-07-06 22:06:00,67.4,53.9,29.69,South,177,8.0,11.0,62,0.00,,,0.00,Wunderground v.1.15,2013-07-07 05:06:00,
2013-07-06 22:11:00,66.9,54.3,29.69,South,180,4.0,8.0,64,0.00,,,0.00,Wunderground v.1.15,2013-07-07 05:11:00,
2013-07-06 22:16:00,66.6,54.5,29.69,South,182,6.0,11.0,65,0.00,,,0.00,Wunderground v.1.15,2013-07-07 05:16:00,
2013-07-06 22:21:00,66.4,54.3,29.69,South,174,5.0,12.0,65,0.00,,,0.00,Wunderground v.1.15,2013-07-07 05:21:00,
2013-07-06 22:26:00,66.3,54.6,29.69,SSW,196,7.0,12.0,66,0.00,,,0.00,Wunderground v.1.15,2013-07-07 05:26:00,
2013-07-06 22:31:00,66.4,54.7,29.69,South,184,2.0,8.0,66,0.00,,,0.00,Wunderground v.1.15,2013-07-07 05:31:00,
2013-07-06 22:36:00,66.5,54.8,29.70,SSW,203,5.0,13.0,66,0.00,,,0.00,Wunderground v.1.15,2013-07-07 05:36:00,
2013-07-06 22:41:00,66.5,54.8,29.70,SSW,198,3.0,7.0,66,0.00,,,0.00,Wunderground v.1.15,2013-07-07 05:41:00,
2013-07-06 22:46:00,66.5,54.8,29.70,South,185,9.0,12.0,66,0.00,,,0.00,Wunderground v.1.15,2013-07-07 05:46:00,
2013-07-06 22:51:00,66.3,54.6,29.70,SSW,210,7.0,9.0,66,0.00,,,0.00,Wunderground v.1.15,2013-07-07 05:51:00,
2013-07-06 22:56:00,66.1,54.8,29.70,SSE,161,5.0,13.0,67,0.00,,,0.00,Wunderground v.1.15,2013-07-07 05:56:00,
2013-07-06 23:01:00,65.7,54.4,29.70,SSW,205,7.0,9.0,67,0.00,,,0.00,Wunderground v.1.15,2013-07-07 06:01:00,
2013-07-06 23:06:00,65.6,54.8,29.70,SSE,160,8.0,9.0,68,0.00,,,0.00,Wunderground v.1.15,2013-07-07 06:06:00,
2013-07-06 23:11:00,65.3,54.5,29.70,SSW,196,4.0,9.0,68,0.00,,,0.00,Wunderground v.1.15,2013-07-07 06:11:00,
2013-07-06 23:16:00,64.9,54.5,29.70,SSW,196,4.0,11.0,69,0.00,,,0.00,Wunderground v.1.15,2013-07-07 06:16:00,
2013-07-06 23:21:00,64.4,54.4,29.70,South,185,7.0,10.0,70,0.00,,,0.00,Wunderground v.1.15,2013-07-07 06:21:00,
2013-07-06 23:26:00,64.0,54.4,29.70,South,171,11.0,12.0,71,0.00,,,0.00,Wunderground v.1.15,2013-07-07 06:26:00,
2013-07-06 23:31:00,63.5,54.3,29.70,South,177,6.0,9.0,72,0.00,,,0.00,Wunderground v.1.15,2013-07-07 06:31:00,
2013-07-06 23:36:00,63.0,54.2,29.71,SSE,150,11.0,14.0,73,0.00,,,0.00,Wunderground v.1.15,2013-07-07 06:36:00,
2013-07-06 23:41:00,62.5,54.1,29.71,SSE,150,8.0,15.0,74,0.00,,,0.00,Wunderground v.1.15,2013-07-07 06:41:00,
2013-07-06 23:46:00,61.9,53.9,29.71,South,182,7.0,15.0,75,0.00,,,0.00,Wunderground v.1.15,2013-07-07 06:46:00,
2013-07-06 23:51:00,61.3,53.7,29.71,South,188,8.0,15.0,76,0.00,,,0.00,Wunderground v.1.15,2013-07-07 06:51:00,
2013-07-06 23:56:00,60.9,53.6,29.71,SSW,205,9.0,15.0,77,0.00,,,0.00,Wunderground v.1.15,2013-07-07 06:56:00,